CMA CGM Homere — MQBL6 — position and weather

sailwx.info

Track history (hours):
 
Tides and Currents Weather Stations Pressure Air Temp Water Temp Dewpoint Dewpoint Depression Visibility Wind Speed Wind Dir Waves Ship Positions

CMA CGM Homere

Last reported at 2014-Jul-30 14:31 UTC. Time now 2014-Jul-30 15:21 UTC.
Position N 49°29' E 000°10'.

Length 170 m; draft 8 m.

Type: Ship (hazmat cat A). MMSI: 235052314.

Date/timePositionNaut miles runAvg speedWind from/ knotsBaromVisibWave heightAir tempDewpointWater temp
2014-Jul-30 14:31N 49°29' E 000°10'0 0.0
2014-Jul-30 13:31N 49°29' E 000°10'0 0.0
2014-Jul-30 12:31N 49°29' E 000°10'0 0.0
2014-Jul-30 11:31N 49°29' E 000°10'0 0.0
2014-Jul-30 10:31N 49°29' E 000°10'0 0.0
2014-Jul-30 09:31N 49°29' E 000°10'0 0.0
2014-Jul-30 08:31N 49°29' E 000°10'0 0.0
2014-Jul-30 07:31N 49°29' E 000°10'0 0.0
2014-Jul-30 06:31N 49°29' E 000°10'0 0.0
2014-Jul-30 05:31N 49°29' E 000°10'0 0.0
2014-Jul-30 04:31N 49°29' E 000°10'0 0.0
2014-Jul-30 03:31N 49°29' E 000°10'0 0.0
2014-Jul-30 02:31N 49°29' E 000°10'0 0.0
2014-Jul-30 01:31N 49°29' E 000°10'0 0.0
2014-Jul-30 00:31N 49°29' E 000°10'0 0.0
2014-Jul-29 23:31N 49°29' E 000°10'0 0.0
2014-Jul-29 22:31N 49°29' E 000°10'0 0.0
2014-Jul-29 21:31N 49°29' E 000°10'0 0.0
2014-Jul-29 20:31N 49°29' E 000°10'0 0.0
2014-Jul-29 19:31N 49°29' E 000°10'1 0.7
2014-Jul-29 18:33N 49°28' E 000°09'1010.4
2014-Jul-29 17:33N 49°32' W 000°06'2 2.3
2014-Jul-29 16:30N 49°33' W 000°09'0 0.0
2014-Jul-29 15:33N 49°33' W 000°09'0 0.1
2014-Jul-29 14:33N 49°33' W 000°08'0 0.0
2014-Jul-29 13:33N 49°33' W 000°08'0 0.0
2014-Jul-29 12:33N 49°33' W 000°08'0 0.0
2014-Jul-29 11:33N 49°33' W 000°08'0 0.0
2014-Jul-29 10:31N 49°33' W 000°08'0 0.0
2014-Jul-29 09:31N 49°33' W 000°08'0 0.1
2014-Jul-29 08:33N 49°33' W 000°08'0 0.0
2014-Jul-29 07:30N 49°33' W 000°08'0 0.0
2014-Jul-29 06:30N 49°33' W 000°08'0 0.0
2014-Jul-29 05:24N 49°33' W 000°09'0 0.0
2014-Jul-29 04:30N 49°33' W 000°09'0 0.0
2014-Jul-29 03:33N 49°33' W 000°08'0 0.0
2014-Jul-29 02:33N 49°33' W 000°09'0 0.0
2014-Jul-29 01:30N 49°33' W 000°08'0 0.0
2014-Jul-29 00:30N 49°33' W 000°08'0 0.0
2014-Jul-28 23:33N 49°33' W 000°08'0 0.1
2014-Jul-28 22:24N 49°33' W 000°08'0 0.0
2014-Jul-28 21:33N 49°33' W 000°08'0 0.1
2014-Jul-28 20:33N 49°33' W 000°08'0 0.1
2014-Jul-28 19:33N 49°33' W 000°08'0 0.0
2014-Jul-28 18:30N 49°33' W 000°08'0 0.0
2014-Jul-28 17:24N 49°33' W 000°09'6 6.6
2014-Jul-28 16:33N 49°38' W 000°12'5811.3
2014-Jul-28 11:28N 50°31' E 000°23'1112.1
2014-Jul-28 10:33N 50°36' E 000°39'1313.5
2014-Jul-28 09:34N 50°45' E 000°54'3216.2
2014-Jul-28 07:34N 51°07' E 001°33'1716.8
2014-Jul-28 06:34N 51°19' E 001°52'1515.0
2014-Jul-28 05:33N 51°31' E 002°05'1414.1
2014-Jul-28 04:33N 51°43' E 002°19'1313.5
2014-Jul-28 03:33N 51°52' E 002°34'1313.1
2014-Jul-28 02:33N 52°01' E 002°50'1413.5
2014-Jul-28 01:33N 52°02' E 003°12'1414.0
2014-Jul-28 00:33N 52°04' E 003°34'1313.4
2014-Jul-27 23:33N 52°02' E 003°56'1312.7
2014-Jul-27 22:34N 51°56' E 004°13'7 7.4
2014-Jul-27 21:33N 51°53' E 004°24'0 0.5
2014-Jul-27 20:33N 51°53' E 004°24'0 0.0
2014-Jul-27 19:33N 51°53' E 004°24'0 0.0
2014-Jul-27 18:33N 51°53' E 004°24'0 0.0
2014-Jul-27 17:33N 51°53' E 004°24'0 0.0
2014-Jul-27 16:33N 51°53' E 004°24'0 0.0
2014-Jul-27 15:33N 51°53' E 004°24'0 0.0
2014-Jul-27 14:33N 51°53' E 004°24'0 0.0
2014-Jul-27 13:33N 51°53' E 004°24'0 0.0
2014-Jul-27 12:33N 51°53' E 004°24'0 0.0
2014-Jul-27 11:33N 51°53' E 004°24'0 0.0
2014-Jul-27 10:33N 51°53' E 004°24'0 0.0
2014-Jul-27 09:33N 51°53' E 004°24'0 0.0
2014-Jul-27 08:33N 51°53' E 004°24'0 0.0
2014-Jul-27 07:33N 51°53' E 004°24'0 0.0
2014-Jul-27 06:33N 51°53' E 004°24'0 0.0
2014-Jul-27 05:15N 51°53' E 004°24'0 0.0
2014-Jul-27 04:33N 51°53' E 004°24'0 0.0
2014-Jul-27 03:33N 51°53' E 004°24'0 0.0
2014-Jul-27 02:33N 51°53' E 004°24'1 0.7
2014-Jul-27 01:33N 51°54' E 004°24'9 9.1
2014-Jul-27 00:33N 51°57' E 004°10'1313.3
2014-Jul-26 23:33N 52°00' E 003°49'1211.6
2014-Jul-26 22:33N 51°56' E 003°32'1212.0
2014-Jul-26 21:33N 51°53' E 003°13'1211.7
2014-Jul-26 20:33N 51°49' E 002°55'1412.3
2014-Jul-26 19:26N 51°51' E 002°33'910.2
2014-Jul-26 18:33N 51°47' E 002°20'1212.4
2014-Jul-26 17:33N 51°39' E 002°05'1312.9
2014-Jul-26 16:33N 51°33' E 001°47'1312.5
2014-Jul-26 15:33N 51°26' E 001°30'1414.1
2014-Jul-26 14:33N 51°29' E 001°08'1414.4
2014-Jul-26 13:33N 51°30' E 000°44'1211.6
2014-Jul-26 12:34N 51°27' E 000°26'4 3.9
2014-Jul-26 11:34N 51°28' E 000°20'0 0.0
2014-Jul-26 10:34N 51°28' E 000°20'0 0.0
2014-Jul-26 09:34N 51°28' E 000°20'0 0.0
2014-Jul-26 08:34N 51°28' E 000°20'0 0.0
2014-Jul-26 07:34N 51°28' E 000°20'0 0.0
2014-Jul-26 06:34N 51°28' E 000°20'0 0.0
2014-Jul-26 05:34N 51°28' E 000°20'0 0.0
2014-Jul-26 04:34N 51°28' E 000°20'0 0.0
2014-Jul-26 03:34N 51°28' E 000°20'0 0.0
2014-Jul-26 02:34N 51°28' E 000°20'0 0.0
2014-Jul-26 01:34N 51°28' E 000°20'0 0.0
2014-Jul-26 00:34N 51°28' E 000°20'0 0.0
2014-Jul-25 23:34N 51°28' E 000°20'2 1.7
2014-Jul-25 22:34N 51°27' E 000°22'9 9.0
2014-Jul-25 21:33N 51°30' E 000°36'1414.3
2014-Jul-25 20:33N 51°29' E 000°59'1312.9
2014-Jul-25 19:34N 51°29' E 001°20'10 9.6
2014-Jul-25 18:33N 51°24' E 001°33'1212.0
2014-Jul-25 17:33N 51°12' E 001°38'1312.6
2014-Jul-25 16:33N 51°00' E 001°30'1414.0
2014-Jul-25 15:33N 50°47' E 001°22'1613.7
2014-Jul-25 14:24N 50°35' E 001°06'1213.6
2014-Jul-25 13:32N 50°29' E 000°50'1313.7
2014-Jul-25 12:33N 50°26' E 000°30'10714.6
2014-Jul-25 05:13N 49°58' W 002°12'1217.3
2014-Jul-25 04:30N 49°55' W 002°30'1616.5
2014-Jul-25 03:30N 49°50' W 002°55'1515.8
2014-Jul-25 02:34N 49°41' W 003°13'3216.0
2014-Jul-25 00:33N 49°25' W 003°56'6115.3
2014-Jul-24 20:33N 48°56' W 005°18'65116.2
2014-Jul-23 04:30N 38°35' W 009°48'3718.8
2014-Jul-23 02:33N 37°59' W 009°39'1818.0
2014-Jul-23 01:33N 37°42' W 009°35'1818.1
2014-Jul-23 00:33N 37°24' W 009°30'1818.2
2014-Jul-22 23:33N 37°06' W 009°25'1818.3
2014-Jul-22 22:34N 36°49' W 009°17'1918.4
2014-Jul-22 21:33N 36°40' W 008°57'1918.8
2014-Jul-22 20:34N 36°35' W 008°34'1918.7
2014-Jul-22 19:34N 36°29' W 008°12'1919.1
2014-Jul-22 18:34N 36°23' W 007°50'1919.2
2014-Jul-22 17:34N 36°16' W 007°28'5918.8
2014-Jul-22 14:24N 35°58' W 006°18'1517.8
2014-Jul-22 13:33N 35°58' W 005°59'  
Track history (hours):
 
Tides and Currents Weather Stations Pressure Air Temp Water Temp Dewpoint Dewpoint Depression Visibility Wind Speed Wind Dir Waves Ship Positions

CMA CGM Homere

Last reported at 2014-Jul-30 14:31 UTC. Time now 2014-Jul-30 15:21 UTC.
Position N 49°29' E 000°10'.

Length 170 m; draft 8 m.

Type: Ship (hazmat cat A). MMSI: 235052314.

Date/timePositionNaut miles runAvg speedWind from/ knotsBaromVisibWave heightAir tempDewpointWater temp
2014-Jul-30 14:31N 49°29' E 000°10'0 0.0
2014-Jul-30 13:31N 49°29' E 000°10'0 0.0
2014-Jul-30 12:31N 49°29' E 000°10'0 0.0
2014-Jul-30 11:31N 49°29' E 000°10'0 0.0
2014-Jul-30 10:31N 49°29' E 000°10'0 0.0
2014-Jul-30 09:31N 49°29' E 000°10'0 0.0
2014-Jul-30 08:31N 49°29' E 000°10'0 0.0
2014-Jul-30 07:31N 49°29' E 000°10'0 0.0
2014-Jul-30 06:31N 49°29' E 000°10'0 0.0
2014-Jul-30 05:31N 49°29' E 000°10'0 0.0
2014-Jul-30 04:31N 49°29' E 000°10'0 0.0
2014-Jul-30 03:31N 49°29' E 000°10'0 0.0
2014-Jul-30 02:31N 49°29' E 000°10'0 0.0
2014-Jul-30 01:31N 49°29' E 000°10'0 0.0
2014-Jul-30 00:31N 49°29' E 000°10'0 0.0
2014-Jul-29 23:31N 49°29' E 000°10'0 0.0
2014-Jul-29 22:31N 49°29' E 000°10'0 0.0
2014-Jul-29 21:31N 49°29' E 000°10'0 0.0
2014-Jul-29 20:31N 49°29' E 000°10'0 0.0
2014-Jul-29 19:31N 49°29' E 000°10'1 0.7
2014-Jul-29 18:33N 49°28' E 000°09'1010.4
2014-Jul-29 17:33N 49°32' W 000°06'2 2.3
2014-Jul-29 16:30N 49°33' W 000°09'0 0.0
2014-Jul-29 15:33N 49°33' W 000°09'0 0.1
2014-Jul-29 14:33N 49°33' W 000°08'0 0.0
2014-Jul-29 13:33N 49°33' W 000°08'0 0.0
2014-Jul-29 12:33N 49°33' W 000°08'0 0.0
2014-Jul-29 11:33N 49°33' W 000°08'0 0.0
2014-Jul-29 10:31N 49°33' W 000°08'0 0.0
2014-Jul-29 09:31N 49°33' W 000°08'0 0.1
2014-Jul-29 08:33N 49°33' W 000°08'0 0.0
2014-Jul-29 07:30N 49°33' W 000°08'0 0.0
2014-Jul-29 06:30N 49°33' W 000°08'0 0.0
2014-Jul-29 05:24N 49°33' W 000°09'0 0.0
2014-Jul-29 04:30N 49°33' W 000°09'0 0.0
2014-Jul-29 03:33N 49°33' W 000°08'0 0.0
2014-Jul-29 02:33N 49°33' W 000°09'0 0.0
2014-Jul-29 01:30N 49°33' W 000°08'0 0.0
2014-Jul-29 00:30N 49°33' W 000°08'0 0.0
2014-Jul-28 23:33N 49°33' W 000°08'0 0.1
2014-Jul-28 22:24N 49°33' W 000°08'0 0.0
2014-Jul-28 21:33N 49°33' W 000°08'0 0.1
2014-Jul-28 20:33N 49°33' W 000°08'0 0.1
2014-Jul-28 19:33N 49°33' W 000°08'0 0.0
2014-Jul-28 18:30N 49°33' W 000°08'0 0.0
2014-Jul-28 17:24N 49°33' W 000°09'6 6.6
2014-Jul-28 16:33N 49°38' W 000°12'5811.3
2014-Jul-28 11:28N 50°31' E 000°23'1112.1
2014-Jul-28 10:33N 50°36' E 000°39'1313.5
2014-Jul-28 09:34N 50°45' E 000°54'3216.2
2014-Jul-28 07:34N 51°07' E 001°33'1716.8
2014-Jul-28 06:34N 51°19' E 001°52'1515.0
2014-Jul-28 05:33N 51°31' E 002°05'1414.1
2014-Jul-28 04:33N 51°43' E 002°19'1313.5
2014-Jul-28 03:33N 51°52' E 002°34'1313.1
2014-Jul-28 02:33N 52°01' E 002°50'1413.5
2014-Jul-28 01:33N 52°02' E 003°12'1414.0
2014-Jul-28 00:33N 52°04' E 003°34'1313.4
2014-Jul-27 23:33N 52°02' E 003°56'1312.7
2014-Jul-27 22:34N 51°56' E 004°13'7 7.4
2014-Jul-27 21:33N 51°53' E 004°24'0 0.5
2014-Jul-27 20:33N 51°53' E 004°24'0 0.0
2014-Jul-27 19:33N 51°53' E 004°24'0 0.0
2014-Jul-27 18:33N 51°53' E 004°24'0 0.0
2014-Jul-27 17:33N 51°53' E 004°24'0 0.0
2014-Jul-27 16:33N 51°53' E 004°24'0 0.0
2014-Jul-27 15:33N 51°53' E 004°24'0 0.0
2014-Jul-27 14:33N 51°53' E 004°24'0 0.0
2014-Jul-27 13:33N 51°53' E 004°24'0 0.0
2014-Jul-27 12:33N 51°53' E 004°24'0 0.0
2014-Jul-27 11:33N 51°53' E 004°24'0 0.0
2014-Jul-27 10:33N 51°53' E 004°24'0 0.0
2014-Jul-27 09:33N 51°53' E 004°24'0 0.0
2014-Jul-27 08:33N 51°53' E 004°24'0 0.0
2014-Jul-27 07:33N 51°53' E 004°24'0 0.0
2014-Jul-27 06:33N 51°53' E 004°24'0 0.0
2014-Jul-27 05:15N 51°53' E 004°24'0 0.0
2014-Jul-27 04:33N 51°53' E 004°24'0 0.0
2014-Jul-27 03:33N 51°53' E 004°24'0 0.0
2014-Jul-27 02:33N 51°53' E 004°24'1 0.7
2014-Jul-27 01:33N 51°54' E 004°24'9 9.1
2014-Jul-27 00:33N 51°57' E 004°10'1313.3
2014-Jul-26 23:33N 52°00' E 003°49'1211.6
2014-Jul-26 22:33N 51°56' E 003°32'1212.0
2014-Jul-26 21:33N 51°53' E 003°13'1211.7
2014-Jul-26 20:33N 51°49' E 002°55'1412.3
2014-Jul-26 19:26N 51°51' E 002°33'910.2
2014-Jul-26 18:33N 51°47' E 002°20'1212.4
2014-Jul-26 17:33N 51°39' E 002°05'1312.9
2014-Jul-26 16:33N 51°33' E 001°47'1312.5
2014-Jul-26 15:33N 51°26' E 001°30'1414.1
2014-Jul-26 14:33N 51°29' E 001°08'1414.4
2014-Jul-26 13:33N 51°30' E 000°44'1211.6
2014-Jul-26 12:34N 51°27' E 000°26'4 3.9
2014-Jul-26 11:34N 51°28' E 000°20'0 0.0
2014-Jul-26 10:34N 51°28' E 000°20'0 0.0
2014-Jul-26 09:34N 51°28' E 000°20'0 0.0
2014-Jul-26 08:34N 51°28' E 000°20'0 0.0
2014-Jul-26 07:34N 51°28' E 000°20'0 0.0
2014-Jul-26 06:34N 51°28' E 000°20'0 0.0
2014-Jul-26 05:34N 51°28' E 000°20'0 0.0
2014-Jul-26 04:34N 51°28' E 000°20'0 0.0
2014-Jul-26 03:34N 51°28' E 000°20'0 0.0
2014-Jul-26 02:34N 51°28' E 000°20'0 0.0
2014-Jul-26 01:34N 51°28' E 000°20'0 0.0
2014-Jul-26 00:34N 51°28' E 000°20'0 0.0
2014-Jul-25 23:34N 51°28' E 000°20'2 1.7
2014-Jul-25 22:34N 51°27' E 000°22'9 9.0
2014-Jul-25 21:33N 51°30' E 000°36'1414.3
2014-Jul-25 20:33N 51°29' E 000°59'1312.9
2014-Jul-25 19:34N 51°29' E 001°20'10 9.6
2014-Jul-25 18:33N 51°24' E 001°33'1212.0
2014-Jul-25 17:33N 51°12' E 001°38'1312.6
2014-Jul-25 16:33N 51°00' E 001°30'1414.0
2014-Jul-25 15:33N 50°47' E 001°22'1613.7
2014-Jul-25 14:24N 50°35' E 001°06'1213.6
2014-Jul-25 13:32N 50°29' E 000°50'1313.7
2014-Jul-25 12:33N 50°26' E 000°30'10714.6
2014-Jul-25 05:13N 49°58' W 002°12'1217.3
2014-Jul-25 04:30N 49°55' W 002°30'1616.5
2014-Jul-25 03:30N 49°50' W 002°55'1515.8
2014-Jul-25 02:34N 49°41' W 003°13'3216.0
2014-Jul-25 00:33N 49°25' W 003°56'6115.3
2014-Jul-24 20:33N 48°56' W 005°18'65116.2
2014-Jul-23 04:30N 38°35' W 009°48'3718.8
2014-Jul-23 02:33N 37°59' W 009°39'1818.0
2014-Jul-23 01:33N 37°42' W 009°35'1818.1
2014-Jul-23 00:33N 37°24' W 009°30'1818.2
2014-Jul-22 23:33N 37°06' W 009°25'1818.3
2014-Jul-22 22:34N 36°49' W 009°17'1918.4
2014-Jul-22 21:33N 36°40' W 008°57'1918.8
2014-Jul-22 20:34N 36°35' W 008°34'1918.7
2014-Jul-22 19:34N 36°29' W 008°12'1919.1
2014-Jul-22 18:34N 36°23' W 007°50'1919.2
2014-Jul-22 17:34N 36°16' W 007°28'5918.8
2014-Jul-22 14:24N 35°58' W 006°18'1517.8
2014-Jul-22 13:33N 35°58' W 005°59'  

Dump ship's entire track history